Погода в Азине

Россия / Удмуртская Республика     56°58′21″N   52°42′36″E
темп.,
°C
ветер,
м/с
пор.,
м/с
влажн.,
%
обл.,
%
осадки,
мм/ч
давл.,
гПа
погр.,
м
13 апреля, вт
вт1301:00+3в2399100 0.0 103958
04:00+1в1298100 0.0 104039
07:00+4вюв249869 0.0 1039113
10:00+9ююв357293 0.0 1038388
13:00+13ю356085 0.0 1036644
16:00+15ююз346589 0.0 1034702
19:00+11ююв228696 0.0 103334
22:00+9ююз229220 0.0 103324
14 апреля, ср
ср1401:00+8юз229248 0.0 103216
04:00+7юз229364 0.0 103217
07:00+8юз239357 0.0 103183
10:00+14ююз247072 0.0 1031443
13:00+17ююз345145 0.0 10291090
16:00+18ююз344622 0.0 10281181
19:00+13ю22685 0.0 102613
22:00+10ю228438 0.0 102628
15 апреля, чт
чт1501:00+9ю22855 0.0 102518
04:00+8ююз228354 0.0 102411
07:00+8ююз24805 0.0 1023101
10:00+14ююз35625 0.0 1022593
13:00+17юз35535 0.0 10201305
16:00+18зюз345058 0.0 10191656
19:00+14зюз2265100 0.0 101826
22:00+12з2276100 0.0 101824
16 апреля, пт
пт1601:00+11з1183100 0.6 101711
04:00+8ссв489085 2.4 1018399
07:00+6св4990100 0.5 1019483
10:00+7св4777100 0.6 1020687
13:00+9св4565100 0.0 10201034
16:00+8св465237 0.0 10211084
19:00+6св24600 0.0 1021109
22:00+3св22770 0.0 102237
17 апреля, сб
сб1701:00+1ссв26730 0.0 1022120
04:000с24730 0.0 102376
07:00+2ссз310685 0.0 1022346
10:00+4с69505 0.0 10231619
13:00+5с71132100 0.0 10242858
16:00+6с612280 0.0 10252573
19:00+2с512330 0.0 10271553
22:00−1с410390 0.0 1029773